• In Hungary
  • List of Countries
  • For 7 days
  • Water Temperature
  • Satellite Maps
  • Weather Map
  • News
  • Weather Widgets
  • user-avatar
    Login

    Hourly Weather Tarija

    Today, 22 February, Thursday

    Time Temperature Precipitation Wind Pressure Humidity
    00:00 +15°C° 0.2 mm 1 mps 599 mmHg 91%
    01:00 +14°C° 0.2 mm 0 mps 599 mmHg 90%
    02:00 +14°C° 0.2 mm 0 mps 599 mmHg 89%
    03:00 +13°C° 0 mm 0 mps 598 mmHg 90%
    04:00 +13°C° 0 mm 0 mps 598 mmHg 92%
    05:00 +13°C° 0 mm 1 mps 597 mmHg 93%
    06:00 +14°C° 0 mm 1 mps 598 mmHg 90%
    07:00 +15°C° 0 mm 1 mps 599 mmHg 87%
    08:00 +16°C° 0 mm 1 mps 600 mmHg 84%
    09:00 +18°C° 0.1 mm 1 mps 600 mmHg 79%
    10:00 +19°C° 0.1 mm 1 mps 600 mmHg 74%
    11:00 +20°C° 0.1 mm 2 mps 600 mmHg 69%
    12:00 +20°C° 0.2 mm 2 mps 600 mmHg 67%
    13:00 +21°C° 0.2 mm 2 mps 600 mmHg 66%
    14:00 +21°C° 0.2 mm 3 mps 599 mmHg 65%
    15:00 +21°C° 0.2 mm 3 mps 598 mmHg 68%
    16:00 +20°C° 0.2 mm 3 mps 598 mmHg 72%
    17:00 +19°C° 0.2 mm 3 mps 597 mmHg 76%
    18:00 +18°C° 0.1 mm 3 mps 597 mmHg 80%
    19:00 +17°C° 0.1 mm 2 mps 597 mmHg 83%
    20:00 +16°C° 0.1 mm 2 mps 597 mmHg 87%
    21:00 +16°C° 0.2 mm 2 mps 598 mmHg 88%
    22:00 +16°C° 0.2 mm 1 mps 598 mmHg 89%
    23:00 +16°C° 0.2 mm 1 mps 598 mmHg 90%

    Tomorrow, 23 February, Friday

    Time Temperature Precipitation Wind Pressure Humidity
    00:00 +16°C° 0.2 mm 1 mps 598 mmHg 90%
    01:00 +15°C° 0.2 mm 1 mps 598 mmHg 90%
    02:00 +15°C° 0.2 mm 1 mps 598 mmHg 91%
    03:00 +15°C° 0.1 mm 1 mps 597 mmHg 90%
    04:00 +15°C° 0.1 mm 1 mps 597 mmHg 90%
    05:00 +15°C° 0.1 mm 1 mps 597 mmHg 90%
    06:00 +15°C° 0 mm 1 mps 597 mmHg 87%
    07:00 +16°C° 0 mm 1 mps 598 mmHg 85%
    08:00 +18°C° 0 mm 1 mps 598 mmHg 82%
    09:00 +19°C° 0.1 mm 1 mps 599 mmHg 76%
    10:00 +20°C° 0.1 mm 1 mps 599 mmHg 70%
    11:00 +21°C° 0.1 mm 1 mps 599 mmHg 64%
    12:00 +21°C° 0.2 mm 2 mps 599 mmHg 63%
    13:00 +21°C° 0.2 mm 3 mps 599 mmHg 63%
    14:00 +22°C° 0.2 mm 3 mps 598 mmHg 63%
    15:00 +21°C° 0.5 mm 3 mps 597 mmHg 67%
    16:00 +21°C° 0.5 mm 3 mps 597 mmHg 71%
    17:00 +20°C° 0.5 mm 3 mps 596 mmHg 75%
    18:00 +19°C° 0.4 mm 3 mps 596 mmHg 80%
    19:00 +18°C° 0.4 mm 2 mps 596 mmHg 84%
    20:00 +17°C° 0.4 mm 2 mps 597 mmHg 89%
    21:00 +17°C° 0.7 mm 2 mps 597 mmHg 89%
    22:00 +17°C° 0.7 mm 2 mps 597 mmHg 89%
    23:00 +18°C° 0.7 mm 1 mps 598 mmHg 90%

    Day after tomorrow, 24 February, Saturday

    Time Temperature Precipitation Wind Pressure Humidity
    00:00 +16°C° 0.7 mm 1 mps 597 mmHg 90%
    01:00 +16°C° 0.7 mm 1 mps 597 mmHg 90%
    02:00 +16°C° 0.7 mm 1 mps 597 mmHg 89%
    03:00 +15°C° 0.2 mm 1 mps 596 mmHg 89%
    04:00 +15°C° 0.2 mm 1 mps 596 mmHg 89%
    05:00 +14°C° 0.2 mm 1 mps 596 mmHg 89%
    06:00 +15°C° 0.1 mm 1 mps 596 mmHg 85%
    07:00 +16°C° 0.1 mm 1 mps 597 mmHg 81%
    08:00 +16°C° 0.1 mm 1 mps 598 mmHg 77%
    09:00 +19°C° 0.1 mm 1 mps 598 mmHg 72%
    10:00 +19°C° 0.1 mm 2 mps 599 mmHg 66%
    11:00 +20°C° 0.1 mm 2 mps 600 mmHg 61%
    12:00 +20°C° 0.5 mm 2 mps 599 mmHg 63%
    13:00 +20°C° 0.5 mm 2 mps 599 mmHg 65%
    14:00 +20°C° 0.5 mm 3 mps 598 mmHg 67%
    15:00 +19°C° 0.4 mm 3 mps 598 mmHg 70%
    16:00 +19°C° 0.4 mm 2 mps 597 mmHg 73%
    17:00 +19°C° 0.4 mm 2 mps 597 mmHg 76%
    18:00 +18°C° 0.3 mm 2 mps 597 mmHg 80%
    19:00 +17°C° 0.3 mm 2 mps 597 mmHg 83%
    20:00 +16°C° 0.3 mm 2 mps 598 mmHg 87%
    21:00 +16°C° 0.7 mm 2 mps 598 mmHg 87%
    22:00 +16°C° 0.7 mm 2 mps 598 mmHg 88%
    23:00 +16°C° 0.7 mm 2 mps 599 mmHg 89%

    25 February, Sunday

    Time Temperature Precipitation Wind Pressure Humidity
    00:00 +16°C° 0.9 mm 2 mps 599 mmHg 89%
    01:00 +16°C° 0.9 mm 2 mps 598 mmHg 90%
    02:00 +15°C° 0.9 mm 2 mps 598 mmHg 90%
    03:00 +15°C° 0.6 mm 2 mps 598 mmHg 90%
    04:00 +15°C° 0.6 mm 2 mps 598 mmHg 90%
    05:00 +15°C° 0.6 mm 2 mps 597 mmHg 90%
    06:00 +16°C° 0.2 mm 1 mps 598 mmHg 86%
    07:00 +16°C° 0.2 mm 1 mps 599 mmHg 83%
    08:00 +18°C° 0.2 mm 1 mps 599 mmHg 80%
    09:00 +19°C° 0.1 mm 1 mps 599 mmHg 76%
    10:00 +19°C° 0.1 mm 2 mps 600 mmHg 72%
    11:00 +19°C° 0.1 mm 2 mps 600 mmHg 68%
    12:00 +20°C° 0.2 mm 2 mps 600 mmHg 67%
    13:00 +20°C° 0.2 mm 2 mps 599 mmHg 66%
    14:00 +21°C° 0.2 mm 2 mps 598 mmHg 65%
    15:00 +20°C° 0.2 mm 2 mps 598 mmHg 68%
    16:00 +20°C° 0.2 mm 2 mps 597 mmHg 71%
    17:00 +20°C° 0.2 mm 3 mps 597 mmHg 73%
    18:00 +19°C° 0.2 mm 2 mps 597 mmHg 77%
    19:00 +18°C° 0.2 mm 2 mps 597 mmHg 81%
    20:00 +17°C° 0.2 mm 2 mps 598 mmHg 85%
    21:00 +18°C° 0.3 mm 1 mps 598 mmHg 86%
    22:00 +18°C° 0.3 mm 1 mps 598 mmHg 87%
    23:00 +18°C° 0.3 mm 1 mps 598 mmHg 88%

    26 February, Monday

    Time Temperature Precipitation Wind Pressure Humidity
    00:00 +16°C° 0.4 mm 1 mps 598 mmHg 89%
    01:00 +16°C° 0.4 mm 1 mps 598 mmHg 89%
    02:00 +16°C° 0.4 mm 1 mps 597 mmHg 90%
    03:00 +16°C° 0.3 mm 1 mps 597 mmHg 90%
    04:00 +15°C° 0.3 mm 1 mps 597 mmHg 91%
    05:00 +15°C° 0.3 mm 1 mps 596 mmHg 91%
    06:00 +16°C° 0.1 mm 1 mps 597 mmHg 88%
    07:00 +16°C° 0.1 mm 1 mps 598 mmHg 85%
    08:00 +18°C° 0.1 mm 1 mps 598 mmHg 82%
    09:00 +18°C° 0.1 mm 2 mps 598 mmHg 77%
    10:00 +19°C° 0.1 mm 2 mps 599 mmHg 72%
    11:00 +21°C° 0.1 mm 3 mps 599 mmHg 67%
    12:00 +21°C° 0.1 mm 3 mps 598 mmHg 65%
    13:00 +22°C° 0.1 mm 3 mps 597 mmHg 64%
    14:00 +22°C° 0.1 mm 3 mps 597 mmHg 63%
    15:00 +22°C° 0.2 mm 3 mps 596 mmHg 65%
    16:00 +22°C° 0.2 mm 3 mps 596 mmHg 67%
    17:00 +22°C° 0.2 mm 3 mps 595 mmHg 69%
    18:00 +21°C° 0.3 mm 3 mps 595 mmHg 75%
    19:00 +19°C° 0.3 mm 2 mps 595 mmHg 81%
    20:00 +18°C° 0.3 mm 2 mps 596 mmHg 86%
    21:00 +18°C° 0.6 mm 2 mps 596 mmHg 89%
    22:00 +18°C° 0.6 mm 2 mps 596 mmHg 91%
    23:00 +17°C° 0.6 mm 2 mps 596 mmHg 93%

    27 February, Tuesday

    Time Temperature Precipitation Wind Pressure Humidity
    00:00 +17°C° 0.6 mm 2 mps 596 mmHg 94%
    01:00 +17°C° 0.6 mm 2 mps 596 mmHg 94%
    02:00 +17°C° 0.6 mm 2 mps 595 mmHg 95%
    03:00 +18°C° 0.2 mm 1 mps 595 mmHg 95%
    04:00 +16°C° 0.2 mm 1 mps 595 mmHg 95%
    05:00 +16°C° 0.2 mm 1 mps 595 mmHg 95%
    06:00 +18°C° 0 mm 1 mps 595 mmHg 93%
    07:00 +18°C° 0 mm 1 mps 596 mmHg 91%
    08:00 +19°C° 0 mm 1 mps 596 mmHg 89%
    09:00 +19°C° 0.1 mm 2 mps 596 mmHg 83%
    10:00 +20°C° 0.1 mm 2 mps 597 mmHg 77%
    11:00 +22°C° 0.1 mm 3 mps 597 mmHg 70%
    12:00 +22°C° 0.4 mm 3 mps 596 mmHg 70%
    13:00 +22°C° 0.4 mm 3 mps 596 mmHg 70%
    14:00 +24°C° 0.4 mm 3 mps 595 mmHg 69%
    15:00 +22°C° 0.6 mm 3 mps 594 mmHg 74%
    16:00 +21°C° 0.6 mm 3 mps 594 mmHg 79%
    17:00 +21°C° 0.6 mm 3 mps 593 mmHg 84%
    18:00 +20°C° 0.7 mm 3 mps 593 mmHg 87%
    19:00 +19°C° 0.7 mm 3 mps 594 mmHg 91%
    20:00 +18°C° 0.7 mm 2 mps 594 mmHg 94%
    21:00 +18°C° 0.4 mm 2 mps 594 mmHg 94%
    22:00 +18°C° 0.4 mm 2 mps 595 mmHg 95%
    23:00 +18°C° 0.4 mm 2 mps 595 mmHg 95%
    Show more